Location: Black Swamp Observatory
(41.3920°N, 84.1250°W)
Time: 04:32:41
(UTC-04:00)

Courier 1B Rocket - Pass Details

Date: 21 January 2022
Orbit: 920 x 1202 km, 28.2° (Epoch: 28 May)

Event Time Altitude Azimuth Distance (km) Brightness Sun altitude
Exits shadow 04:04:15 13° 128° (SE) 2,465 7.4 -43.4°
Drops below altitude 10° 04:05:12 10° 121° (ESE) 2,694 7.7 -43.2°
Sets 04:08:21 0° 107° (ESE) 3,605 8.6 -42.6°
